Marion, IN

5:54 AM EST on December 14, 2017 (GMT -0500)
Marion Municipal

Weather History for KMZZ - December, 2012

Change the Weather History Date:

Friday, December 14, 2012

  Actual Average (KMIE) Record (KMIE)
Temperature  
Mean Temperature 38 °F -  
Max Temperature 92 °F 36 °F 67 °F (2015)
Min Temperature 30 °F 22 °F -5 °F (1985)
Degree Days  
Heating Degree Days 26    
Moisture  
Dew Point 28 °F    
Average Humidity 68    
Maximum Humidity 80    
Minimum Humidity 53    
Precipitation  
Precipitation 0.00 in - - ()
Sea Level Pressure  
Sea Level Pressure 30.20 in    
Wind  
Wind Speed 6 mph (SSW)    
Max Wind Speed 10 mph    
Max Gust Speed -    
Visibility 7 miles    
Events Snow    
Averages and records for this station are not official NWS values.
T = Trace of Precipitation, MM = Missing Value Source: NWS Daily Summary

Daily Weather History Graph

Daily Weather History Graph

Search for Another Location

Airport or City:

Trip Planner

Search our weather history database for the weather conditions in past years. The results will help you decide how hot, cold, wet, or windy it might be!

Date:

Astronomy

Dec. 14, 2012 Rise Set
Actual Time 7:58 AM EST 5:16 PM EST
Civil Twilight 7:27 AM EST 5:47 PM EST
Nautical Twilight 6:53 AM EST 6:21 PM EST
Astronomical Twilight 6:20 AM EST 6:55 PM EST
Moon 9:02 AM EST 7:08 PM EST
Length of Visible Light 10h 19m
Length of Day
9h 18m
Waxing Crescent, 3% of the Moon is Illuminated
Dec 14
Waxing Crescent
Dec 20
First Quarter
Dec 28
Full
Jan 4
Last Quarter
Jan 11
New

Hourly Weather History & Observations

Time (EST) Temp. Windchill Dew Point Humidity Pressure Visibility Wind Dir Wind Speed Gust Speed Precip Events Conditions
12:15 AM 35.2 °F 27.6 °F 25.0 °F 66% 30.21 in 5.0 mi SSW 10.4 mph - N/A Snow Light Snow
12:35 AM 35.2 °F 27.6 °F 24.8 °F 66% 30.21 in 3.0 mi SSW 10.4 mph - N/A Snow Light Snow
12:55 AM 34.2 °F 28.2 °F 25.7 °F 71% 30.23 in 4.0 mi WNW 6.9 mph - N/A Snow Light Snow
1:15 AM 32.5 °F 28.1 °F 26.1 °F 77% 30.23 in 10.0 mi SW 4.6 mph - N/A   Clear
1:35 AM 31.5 °F 26.8 °F 25.9 °F 80% 30.22 in 5.0 mi SW 4.6 mph - N/A Snow Light Snow
1:55 AM 31.6 °F 26.0 °F 25.9 °F 79% 30.22 in 10.0 mi SW 5.8 mph - N/A   Clear
2:15 AM 31.3 °F 25.6 °F 25.3 °F 79% 30.22 in 2.5 mi SSW 5.8 mph - N/A Snow Light Snow
2:35 AM 31.3 °F 26.6 °F 24.8 °F 77% 30.23 in 7.0 mi SSW 4.6 mph - N/A   Clear
2:55 AM 31.5 °F 26.8 °F 24.6 °F 76% 30.23 in 5.0 mi SSW 4.6 mph - N/A Snow Light Snow
3:15 AM 31.1 °F 26.4 °F 24.4 °F 76% 30.24 in 5.0 mi South 4.6 mph - N/A Snow Light Snow
3:35 AM 30.7 °F 26.0 °F 24.4 °F 77% 30.24 in 7.0 mi SSW 4.6 mph - N/A   Clear
3:55 AM 31.3 °F 24.7 °F 24.3 °F 75% 30.24 in 10.0 mi SSW 6.9 mph - N/A   Clear
4:15 AM 32.0 °F 25.6 °F 24.3 °F 73% 30.24 in 10.0 mi SSW 6.9 mph - N/A   Clear
4:35 AM 32.0 °F 25.6 °F 24.3 °F 73% 30.24 in 5.0 mi SSW 6.9 mph - N/A Snow Light Snow
5:15 AM 32.0 °F 25.6 °F 23.9 °F 72% 30.23 in 7.0 mi South 6.9 mph - N/A   Clear
6:35 AM 30.7 °F 24.9 °F 23.7 °F 75% 30.23 in 5.0 mi South 5.8 mph - N/A Snow Light Snow
6:55 AM 30.2 °F 24.3 °F 23.5 °F 76% 30.23 in 4.0 mi South 5.8 mph - N/A Snow Light Snow
7:35 AM 31.5 °F 24.9 °F 23.7 °F 73% 30.23 in 7.0 mi SSW 6.9 mph - N/A   Clear
8:15 AM 30.4 °F 25.6 °F 23.7 °F 76% 30.23 in 4.0 mi South 4.6 mph - N/A Snow Light Snow
8:35 AM 30.9 °F 25.2 °F 23.7 °F 75% 30.23 in 3.0 mi South 5.8 mph - N/A Snow Light Snow
8:55 AM 31.8 °F 25.4 °F 23.9 °F 73% 30.23 in 3.0 mi South 6.9 mph - N/A Snow Light Snow
9:15 AM 32.2 °F 26.7 °F 24.3 °F 73% 30.23 in 4.0 mi SSW 5.8 mph - N/A   Haze
9:35 AM 33.1 °F 27.7 °F 25.2 °F 73% 30.24 in 4.0 mi SSW 5.8 mph - N/A Snow Light Snow
9:55 AM 34.2 °F 28.2 °F 25.7 °F 71% 30.24 in 4.0 mi SSW 6.9 mph - N/A   Haze
10:15 AM 35.4 °F 29.0 °F 26.2 °F 69% 30.25 in 4.0 mi SSW 8.1 mph - N/A   Haze
10:35 AM 36.3 °F 30.1 °F 26.6 °F 68% 30.26 in 5.0 mi SSW 8.1 mph - N/A   Haze
10:55 AM 37.6 °F 32.3 °F 27.3 °F 66% 30.26 in 7.0 mi SW 6.9 mph - N/A   Clear
11:15 AM 38.8 °F 33.2 °F 27.5 °F 64% 30.26 in 7.0 mi SW 8.1 mph - N/A   Clear
11:35 AM 39.7 °F 34.3 °F 27.9 °F 63% 30.26 in 7.0 mi SW 8.1 mph - N/A   Clear
11:55 AM 40.5 °F 35.8 °F 28.8 °F 63% 30.25 in 10.0 mi SW 6.9 mph - N/A   Clear
12:15 PM 42.1 °F 37.7 °F 29.8 °F 62% 30.23 in 7.0 mi SW 6.9 mph - N/A   Clear
12:35 PM 43.2 °F 39.7 °F 30.7 °F 62% 30.22 in 5.0 mi SW 5.8 mph - N/A   Haze
12:55 PM 43.7 °F 40.3 °F 31.1 °F 61% 30.21 in 4.0 mi SSW 5.8 mph - N/A   Haze
1:15 PM 44.4 °F 42.0 °F 30.9 °F 59% 30.20 in 7.0 mi SSW 4.6 mph - N/A   Clear
1:35 PM 45.0 °F 42.6 °F 30.7 °F 57% 30.18 in 7.0 mi South 4.6 mph - N/A   Clear
1:55 PM 45.9 °F 43.6 °F 30.9 °F 56% 30.18 in 4.0 mi SSW 4.6 mph - N/A   Haze
2:15 PM 46.8 °F - 30.9 °F 54% 30.18 in 4.0 mi SSW 5.8 mph - N/A   Haze
2:35 PM 47.3 °F - 30.9 °F 53% 30.17 in 7.0 mi SSW 4.6 mph - N/A   Clear
2:55 PM 47.5 °F - 31.8 °F 55% 30.17 in 5.0 mi SW 4.6 mph - N/A   Haze
3:15 PM 47.3 °F - 31.3 °F 54% 30.16 in 10.0 mi South 4.6 mph - N/A   Clear
3:35 PM 47.3 °F - 31.6 °F 55% 30.17 in 7.0 mi SW 4.6 mph - N/A   Clear
3:55 PM 47.3 °F - 32.2 °F 56% 30.17 in 10.0 mi SSW 4.6 mph - N/A   Clear
4:15 PM 46.8 °F - 32.2 °F 57% 30.17 in 7.0 mi South 3.5 mph - N/A   Clear
4:35 PM 46.0 °F 44.8 °F 32.2 °F 58% 30.17 in 10.0 mi South 3.5 mph - N/A   Clear
4:55 PM 44.8 °F 42.4 °F 32.2 °F 61% 30.16 in 10.0 mi South 4.6 mph - N/A   Clear
5:15 PM 43.3 °F 39.9 °F 32.2 °F 65% 30.16 in 5.0 mi South 5.8 mph - N/A   Haze
5:35 PM 42.4 °F 39.6 °F 32.0 °F 67% 30.17 in 4.0 mi South 4.6 mph - N/A   Haze
5:55 PM 41.9 °F 38.2 °F 31.5 °F 66% 30.17 in 10.0 mi South 5.8 mph - N/A   Clear
6:15 PM 41.5 °F 39.6 °F 31.3 °F 67% 30.16 in 7.0 mi SSE 3.5 mph - N/A   Clear
6:35 PM 39.7 °F 36.5 °F 31.3 °F 72% 30.17 in 10.0 mi SE 4.6 mph - N/A   Clear
6:55 PM 39.0 °F 35.7 °F 30.9 °F 73% 30.18 in 10.0 mi South 4.6 mph - N/A   Clear
7:15 PM 39.9 °F 36.7 °F 30.9 °F 70% 30.17 in 10.0 mi South 4.6 mph - N/A   Clear
7:35 PM 40.6 °F 37.5 °F 30.2 °F 66% 30.18 in 10.0 mi SSE 4.6 mph - N/A   Clear
7:55 PM 40.1 °F 36.9 °F 30.2 °F 68% 30.18 in 10.0 mi SSE 4.6 mph - N/A   Clear
8:15 PM 38.8 °F 35.4 °F 30.2 °F 71% 30.17 in 10.0 mi SSE 4.6 mph - N/A   Clear
8:35 PM 38.3 °F 33.2 °F 30.2 °F 73% 30.16 in 10.0 mi South 6.9 mph - N/A   Clear
8:55 PM 39.2 °F 34.2 °F 30.2 °F 70% 30.16 in 10.0 mi SSE 6.9 mph - N/A   Clear
9:15 PM 39.6 °F 34.7 °F 30.0 °F 69% 30.15 in 10.0 mi South 6.9 mph - N/A   Clear
9:35 PM 39.7 °F 35.6 °F 29.8 °F 68% 30.15 in 10.0 mi South 5.8 mph - N/A   Clear
9:55 PM 39.9 °F 35.8 °F 29.8 °F 67% 30.14 in 10.0 mi South 5.8 mph - N/A   Clear
10:15 PM 39.7 °F 34.9 °F 29.8 °F 68% 30.14 in 10.0 mi South 6.9 mph - N/A   Clear
10:35 PM 39.9 °F 35.8 °F 29.7 °F 67% 30.14 in 10.0 mi South 5.8 mph - N/A   Clear
10:55 PM 39.4 °F 36.1 °F 29.7 °F 68% 30.14 in 10.0 mi South 4.6 mph - N/A   Clear
11:15 PM 39.2 °F 34.2 °F 29.7 °F 69% 30.14 in 10.0 mi South 6.9 mph - N/A   Clear
11:35 PM 39.4 °F 35.2 °F 29.3 °F 67% 30.12 in 7.0 mi SSE 5.8 mph - N/A   Unknown
11:55 PM 39.7 °F 34.9 °F 29.3 °F 66% 30.13 in 7.0 mi SSE 6.9 mph - N/A   Clear